Regional Weather Roundup
Issued by NWS

Home | Current Version | Previous Version | Graphics & Text | Print | Product List | Glossary On
Versions: 1 2 3 4 5 6 7 8 9 10 11 12 13 14 15 16 17 18 19 20 21 22 23 24 25 26 27 28 29 30 31 32 33 34 35 36 37 38 39 40 41 42 43 44 45 46 47 48 49 50
000
ASUS45 KTFX 230810
RWRMT
MONTANA REGIONAL WEATHER ROUNDUP
NATIONAL WEATHER SERVICE GREAT FALLS MT
100 AM MST FRI FEB 23 2018

NOTE: "FAIR" INDICATES FEW OR NO CLOUDS BELOW 12000 FEET WITH NO
SIGNIFICANT WEATHER AND/OR OBSTRUCTIONS TO VISIBILITY.

MTZ001>007-043-230900-
WEST OF THE DIVIDE

CITY           SKY/WX    TMP DP  RH WIND       PRES   REMARKS
KALISPELL      FAIR       2  -2  83 W5        30.18R
MISSOULA       FAIR      10   4  76 E3        30.16R
BUTTE          CLOUDY    10   5  80 N5        29.97R
MULLAN PASS    MOCLDY     5   1  83 NW3       29.97S
ANACONDA         N/A      7   1  78 CALM      30.03R
DEER LODGE       N/A      7  -2  66 NE7       30.06S WCI  -5
HAMILTON         N/A     18  12  79 MISG      30.13R
RONAN            N/A     -8 -13  77 CALM      30.20R
$$

MTZ008-052>055-230900-
SOUTHWEST MONTANA

CITY           SKY/WX    TMP DP  RH WIND       PRES   REMARKS
BOZEMAN        MOCLDY     3  -3  76 S3        30.07S
DILLON         MOCLDY     4   4 100 E8        29.97R WCI  -9
ENNIS          FLURRIES   7   3  85 S3        30.02R
W YELLOWSTONE  FLURRIES   0  -4  85 CALM      29.90R
THREE FORKS      N/A      1  -6  72 CALM      30.06R
$$

MTZ009-010-012-014-046-048-049-054-230900-
EAST SLOPES AND CENTRAL MONTANA

CITY           SKY/WX    TMP DP  RH WIND       PRES   REMARKS
CUT BANK       FAIR      -6  -9  86 CALM      30.09F
GREAT FALLS    FAIR      -7 -11  83 SW9       30.14F WCI -24
HELENA         FAIR       0  -6  76 NE3       30.13S
AUGUSTA        FAIR      -4  -8  83 CALM      30.07F
CHOTEAU          N/A     -2  -8  78 SW7       30.12F WCI -16
RAYNESFORD     FAIR      -4  -9  80 E5        30.12S
WHITE SULPHUR    N/A     -6  -9  84 S3        30.03S
$$

MTZ011-013-016-021-045-047-050-051-230900-
NORTH CENTRAL MONTANA

CITY           SKY/WX    TMP DP  RH WIND       PRES   REMARKS
HAVRE          FAIR      -6 -10  83 W8        30.22F WCI -21
LEWISTOWN      FAIR      -7 -11  83 SE7       30.11S WCI -21
N BAR RANCH    FAIR      -4 -11  71 NW5       30.11F
CHINOOK          N/A    -11 -17  77 CALM      30.26F
GEYSER         FAIR      -5  -9  82 SW6       30.11S WCI -18
STANFORD       FAIR      -4 -10  77 CALM      30.07F
$$

MTZ017>020-022>027-061-062-230900-
NORTHEAST MONTANA

CITY           SKY/WX    TMP DP  RH WIND       PRES   REMARKS
GLASGOW        FAIR     -15 -20  78 NW9       30.24F WCI -34
GLENDIVE       FAIR     -11 -17  75 W7        30.23S WCI -26
JORDAN           N/A    -13 -19  75 W8        30.23F WCI -30
MALTA          CLOUDY   -13 -17  84 SW5       30.25F
SIDNEY         FAIR     -15 -19  82 CALM      30.27S
WOLF POINT     FAIR     -13 -19  75 SW7       30.28S WCI -29
PLENTYWOOD       N/A      1  -4  78 NW8       30.20F WCI -12
POPLAR           N/A    -15 -18  84 CALM      30.28F
$$

MTZ028>42-056>058-230900-
SOUTHCENTRAL AND SOUTHEAST MONTANA

CITY           SKY/WX    TMP DP  RH WIND       PRES   REMARKS
BAKER          FAIR      -6  -8  91 W6        30.18S WCI -19
BILLINGS       FAIR       4  -1  80 SW5       30.15F
LIVINGSTON       N/A     -2  -6  83 SW3       30.07S
MILES CITY     FAIR     -15 -18  86 SW7       30.24S WCI -31
BIG TIMBER     CLEAR      1  -6  71 CALM      30.12S
FORSYTH          N/A     -8 -11  84 W6        30.24R WCI -21
LAUREL           N/A      5  -4  66 CALM      30.18F
$$

REGIONAL REPORTS...DAKOTAS

CITY           SKY/WX    TMP DP  RH WIND       PRES   REMARKS
WILLISTON      FAIR      -8 -13  78 SW5       30.25S
MINOT          FAIR       5  -2  72 W10       30.18F WCI -10
DICKINSON      FAIR      -2  -6  83 W10       30.14S WCI -19
BEACH          FAIR      -6  -9  84 W5        30.21S
CROSBY         CLOUDY     3   0  85 W6        30.22F WCI  -8
TIOGA          FAIR      -8 -11  84 W8        30.20S WCI -23
WATFORD CITY   FAIR     -11 -15  84 SW8       30.24R WCI -28
BISMARCK       CLOUDY    14   5  67 NW10      30.18F WCI   1
GRAND FORKS    LGT SNOW  20  17  88 N3        30.19F FOG
FARGO          LGT SNOW  21  19  92 N9        30.16F FOG     WCI  11
BUFFALO SD       N/A      2  -5  72 SW6       30.07  WCI  -9
RAPID CITY     FAIR       2  -4  76 NW13      30.11R WCI -15
$$

REGIONAL REPORTS...WYOMING/IDAHO/WASHINGTON

CITY           SKY/WX    TMP DP  RH WIND       PRES   REMARKS
GILLETTE       FAIR      -8 -11  86 CALM      30.08S
SHERIDAN       FAIR      -6 -12  75 NW3       30.11S
BUFFALO WY     FAIR       9  -4  55 CALM      30.05S
CODY           FAIR      -3  -8  79 CALM      30.05F
YELLOWSTONE LA   N/A     -8 -12  83 CALM      29.90S
IDAHO FALLS    CLOUDY    22  19  89 SW8       30.00R WCI  12
SALMON         FLURRIES  22  18  85 N5        30.03R
BOISE          FAIR      18  13  80 W5        30.14R
SPOKANE        FAIR      13   6  74 W5        30.24S
$$

REGIONAL REPORTS...ALBERTA

CITY           SKY/WX    TMP DP  RH WIND       PRES   REMARKS
CALGARY        CLEAR      1  -2  85 S7        29.99F WCI -11
EDMONTON       CLEAR     12   3  67 SW10      29.97F WCI  -1
FORT MCMURRAY  CLOUDY    25  10  54 S15G23    29.87F WCI  12
HIGH LEVEL     CLEAR     14   3  62 S5        29.63F
LETHBRIDGE     CLEAR     -6 -13  71 SW8G18    30.10F WCI -21
LLOYDMINSTER   CLEAR      5   3  92 SW9       30.05F WCI  -9
MEDICINE HAT   CLEAR      0  -4  85 SW3       30.19F
MILK RIVER       N/A    -11 -15  84 W2          N/A
PEACE RIVER    MOCLDY     9   0  66 SW7       29.75F WCI  -3
PINCHER CREEK  CLEAR     -2  -9  71 W10       30.03F WCI -19
WATERTON GATE    N/A      9   0  66 SW16G24     N/A  WCI  -9
$$

REGIONAL REPORTS...SASKATCHEWAN

CITY           SKY/WX    TMP DP  RH WIND       PRES   REMARKS
CORONACH         N/A     -8 -11  84 CALM        N/A
CYPRESS HILLS    N/A      3   0  85 SW1         N/A
ESTEVAN        FLURRIES  -4  -9  77 W3        30.21R
MOOSE JAW        N/A      3   0  85 E2          N/A
PRINCE ALBERT  PTCLDY   -11 -17  77 CALM      30.18F
REGINA         CLEAR     -6  -9  84 W10       30.20S WCI -23
ROCKGLEN         N/A      5   1  85 W7          N/A  WCI  -7
SASKATOON      CLEAR     -4  -8  84 S8        30.20F WCI -19
SWIFT CURRENT  MOCLDY     3  -2  78 SW13      30.14F WCI -14
VAL MARIE        N/A    -15 -20  76 SW2         N/A
$$



USA.gov is the U.S. government's official web portal to all federal, state and local government web resources and services.